sat.trackr.live / text

‹ back to catalog

STARLINK-5916

NORAD 55988 · 2023-042C

PAYLOAD ACTIVE UNKNOWN

§ Identity

Operator
Country
US
Launch date
2023-03-24
Launch site
AFETR
Launch vehicle
Mass (kg)
RCS (m²)

Purposes: comms

External: N2YO · Heavens-Above · Gunter

§ Orbital elements

Epoch: 2026-05-25T00:12:56.863008Z

Period
94.27 min
Inclination
43.0028°
Eccentricity
0.0001199
Mean motion
15.27576138 rev/d
Perigee alt
482.2 km
Apogee alt
483.9 km
Semi-major
6,861.2 km
B*
1.8003e-5
RAAN
352.6864°
Arg perigee
270.1699°
Mean anomaly
89.9015°
Rev number
17,449

§ Raw data

STARLINK-59161 55988U 23042C   26145.00899147  .00000233  00000+0  18003-4 0  99952 55988  43.0028 352.6864 0001199 270.1699  89.9015 15.27576138174494

JSON: /api/v1/satellites/55988 · /tle

For live sub-satellite position, see the globe view (requires WebGL).

§ Visibility from observer

Set your observer location to see the next 7 days of passes ≥ 10°. The values pass through the URL so the page stays shareable.

No JS? Fill the form by hand. The geolocation button needs JavaScript.